TimeEST,TemperatureF,Dew PointF,Humidity,Sea Level PressureIn,VisibilityMPH,Wind Direction,Wind SpeedMPH,Gust SpeedMPH,PrecipitationIn,Events,Conditions,WindDirDegrees,DateUTC
12:52 AM,33.1,14.0,46,29.93,10.0,NW,12.7,-,N/A,,Clear,310,2013-01-22 05:52:00
1:52 AM,32.0,12.0,44,29.96,10.0,NW,15.0,-,N/A,,Clear,320,2013-01-22 06:52:00
2:52 AM,30.9,12.0,46,29.99,10.0,NW,18.4,23.0,N/A,,Clear,310,2013-01-22 07:52:00
3:52 AM,28.0,8.1,43,30.01,10.0,West,19.6,29.9,N/A,,Clear,280,2013-01-22 08:52:00
4:52 AM,26.1,6.1,43,30.05,10.0,NW,25.3,33.4,N/A,,Clear,310,2013-01-22 09:52:00
5:10 AM,26.6,5.0,40,30.06,10.0,NW,21.9,29.9,N/A,,Clear,310,2013-01-22 10:10:00
5:52 AM,25.0,5.0,43,30.07,10.0,WNW,17.3,31.1,N/A,,Clear,290,2013-01-22 10:52:00
6:52 AM,24.1,3.9,42,30.13,10.0,WNW,19.6,26.5,N/A,,Clear,290,2013-01-22 11:52:00
7:52 AM,23.0,-2.0,34,30.16,10.0,WNW,15.0,25.3,N/A,,Partly Cloudy,290,2013-01-22 12:52:00
8:52 AM,24.1,-0.9,34,30.19,10.0,WNW,19.6,27.6,N/A,,Scattered Clouds,300,2013-01-22 13:52:00
9:52 AM,25.0,-0.0,34,30.21,10.0,WNW,19.6,26.5,N/A,,Scattered Clouds,300,2013-01-22 14:52:00
10:52 AM,26.1,-2.0,30,30.22,10.0,WNW,20.7,27.6,N/A,,Scattered Clouds,300,2013-01-22 15:52:00
11:52 AM,25.0,-5.1,27,30.19,10.0,WNW,18.4,29.9,N/A,,Scattered Clouds,290,2013-01-22 16:52:00
12:52 PM,26.1,-2.9,28,30.18,10.0,WNW,16.1,-,N/A,,Mostly Cloudy,290,2013-01-22 17:52:00
1:52 PM,27.0,-2.0,29,30.17,10.0,WNW,10.4,25.3,N/A,,Scattered Clouds,290,2013-01-22 18:52:00
2:52 PM,27.0,-2.9,27,30.17,10.0,SW,10.4,-,N/A,,Scattered Clouds,230,2013-01-22 19:52:00
3:52 PM,27.0,-2.9,27,30.18,10.0,WNW,16.1,21.9,N/A,,Partly Cloudy,300,2013-01-22 20:52:00
4:52 PM,26.1,-4.0,27,30.20,10.0,WNW,13.8,-,N/A,,Scattered Clouds,290,2013-01-22 21:52:00
5:52 PM,25.0,-2.9,30,30.22,10.0,WNW,13.8,-,N/A,,Clear,300,2013-01-22 22:52:00
6:52 PM,24.1,-2.0,32,30.25,10.0,NNW,10.4,-,N/A,,Clear,340,2013-01-22 23:52:00
7:52 PM,23.0,-2.0,34,30.26,10.0,NNW,9.2,-,N/A,,Clear,340,2013-01-23 00:52:00
8:52 PM,21.9,-2.0,35,30.27,10.0,NNW,10.4,-,N/A,,Clear,340,2013-01-23 01:52:00
9:52 PM,21.0,-2.0,36,30.29,10.0,NNW,11.5,-,N/A,,Clear,330,2013-01-23 02:52:00
10:52 PM,21.0,-2.0,36,30.30,10.0,NW,11.5,-,N/A,,Partly Cloudy,320,2013-01-23 03:52:00
11:52 PM,19.9,-0.9,40,30.31,10.0,NNW,10.4,-,N/A,,Clear,330,2013-01-23 04:52:00